GSAT-9

Last updated on Wed May 21 2025 00:02:44 GMT+0000 (Coordinated Universal Time)

1 42695U 17024A 25140.59280975 -.00000278 00000+0 00000+0 0 9993 2 42695 0.0670 256.9429 0001857 134.1420 158.1537 1.00270101 29366
UTC large
Height (km)
Speed (km/s)
/
Latitude / Longitude
Inclination (degrees)
Orbital Period (minutes)
Azimuth
Elevation
Range (km)
Doppler Factor

Next 0 passes for location: London (51.5072 / 0.1276)

Sorry there are no passes over London.